www.pogodaiklimat.ru

Погода и климат >> Архив погоды >> Бангладеш >> Нетрокона-Садар


ПОГОДА в Нетрокона-Садаре

  • Прогноз погоды в Нетрокона-Садаре
  • Монитор погоды в Нетрокона-Садаре

АРХИВ ПОГОДЫ в Нетрокона-Садаре

Время (UTC), дата Ветер
(напр.,м/с)
 
Видим.   Явления Облачность Т
(С)
Тd
(С)
f
(%)
Тe
(С)
Тes
(С)
Комфортность P
(гПа)
Po
(гПа)
Тmin
(С)
Tmax
(С)
R
(мм)
R24
(мм)
S
(см)
06 16.09 В 1 3500 м слаб. дождь {гроза} 10/8 300 м
[Frnb As op]
+25.6 +25.0 96 +36 +37 очень
душно
1007.6 1006.7 41
12 16.09 СВ 1 6000 м {дождь} 9/3 540 м
[Sc Ac As]
+27.2 +26.0 93 +41 +41 опасность
перегрева
1003.9 1002.9 +28.0 2
18 16.09 штиль 0 6000 м 9/3 540 м
[Sc As trans]
+26.7 +26.5 99 +41 +41 опасность
перегрева
1006.6 1005.6
00 17.09 В 2 3000 м гроза, ливневой дождь 10/6 300 м
[Cb cap As op]
+25.8 +25.5 98 +38 +38 очень
душно
1006.9 1006.0 23
06 17.09 В 1 6000 м {гроза, дождь} 8/3 540 м
[Sc Ac As]
+28.9 +26.0 84 +43 +51 опасность
перегрева
1008.8 1007.9 50
12 17.09 В 1 5000 м 4/3 540 м
[Sc diur, vesp Ac trans]
+30.1 +25.0 74 +43 +43 опасность
перегрева
1006.6 1005.7 +32.0
18 17.09 В 1 4000 м мгла 3/3 540 м
[Sc diur, vesp]
+27.1 +27.0 99 +42 +42 опасность
перегрева
1008.3 1007.3
00 18.09 В 1 4000 м мгла 5/3 540 м
[Sc diur, vesp Ac As]
+25.8 +25.0 95 +37 +37 очень
душно
1008.9 1007.9
06 18.09 В 1 6000 м 6/4 540 м
[Sc diur, vesp Ac As]
+32.8 +26.0 68 +49 +59 опасность
перегрева
1010.6 1009.6
12 18.09 В 1 5000 м 4/3 540 м
[Sc diur, vesp Ac trans]
+31.7 +28.0 81 +52 +52 опасность
перегрева
1007.9 1006.9 +34.2
18 18.09 штиль 0 4000 м мгла 4/3 540 м
[Sc diur, vesp Ac trans]
+28.5 +28.0 97 +47 +47 опасность
перегрева
1010.0 1009.0
00 19.09 штиль 0 3000 м мгла 4/3 540 м
[Sc Ac trans]
+27.0 +27.0 100 +42 +42 опасность
перегрева
1010.2 1009.3
06 19.09 З 1 6000 м 4/4 540 м
[Sc diur, vesp]
+33.4 +25.0 62 +47 +61 опасность
перегрева
1010.2 1009.2
12 19.09 З 1 5000 м 3/3 540 м
[Sc diur, vesp]
+32.2 +26.0 70 +48 +48 опасность
перегрева
1007.0 1006.0 +34.8
18 19.09 штиль 0 3500 м мгла ясно +28.6 +28.6 100 +49 +49 опасность
перегрева
1009.4 1008.4
00 20.09 штиль 0 3000 м мгла 5/3 540 м
[Sc diur, vesp Ac trans]
+27.0 +27.0 100 +42 +42 опасность
перегрева
1008.7 1007.7
06 20.09 З 1 6000 м 5/4 540 м
[Sc diur, vesp Ac trans]
+33.0 +26.0 67 +49 +60 опасность
перегрева
1009.1 1008.1
12 20.09 штиль 0 5000 м 3/3 540 м
[Sc diur, vesp]
+32.2 +27.0 74 +50 +50 опасность
перегрева
1005.0 1004.0 +34.8
18 20.09 ЮЗ 1 5000 м 3/3 540 м
[Sc diur, vesp]
+28.5 +27.0 92 +45 +45 опасность
перегрева
1008.0 1007.1
00 21.09 штиль 0 4000 м мгла 3/3 540 м
[Sc diur, vesp]
+27.0 +26.0 94 +40 +40 очень
душно
1007.3 1006.3
06 21.09 З 1 6000 м 3/3 540 м
[Sc diur, vesp]
+34.2 +26.0 62 +50 +65 опасность
перегрева
1007.9 1007.0
12 21.09 штиль 0 6000 м 8/3 540 м
[Sc diur, vesp Ac As]
+31.8 +28.0 80 +52 +52 опасность
перегрева
1005.6 1004.6 +36.0
15 21.09 ЮЗ 1 6000 м зарница 8/4 540 м
[Cb calv Ac As]
+29.5 +28.0 92 +49 +49 опасность
перегрева
1008.2 1007.3
18 21.09 ЮЗ 1 6000 м зарница 8/4 540 м
[Cb calv Ac As]
+28.0 +27.0 94 +44 +44 опасность
перегрева
1008.4 1007.5
00 22.09 ЮВ 1 6000 м 6/3 540 м
[Sc diur, vesp Ac As]
+26.5 +25.0 91 +38 +38 очень
душно
1009.0 1008.0
06 22.09 В 1 6000 м 6/4 540 м
[Sc diur, vesp Ac As]
+32.5 +26.0 69 +48 +59 опасность
перегрева
1009.8 1008.8
12 22.09 штиль 0 5000 м {гроза, дождь} 9/4 540 м
[Sc diur, vesp Ac As]
+27.0 +25.0 89 +39 +39 очень
душно
1008.0 1007.0 +34.0 4
18 22.09 штиль 0 6000 м гроза без осадков 8/4 540 м
[Cb calv Ac As]
+25.3 +24.0 93 +35 +35 очень
душно
1011.6 1010.6 0.5

 

Местоположение метеостанции Нетрокона-Садар (Бангладеш): широта 24.89 долгота 90.73 высота над уровнем моря 13 м.

В архиве по умолчанию представлена погода в Нетрокона-Садаре за последнюю неделю. Архивные данные за месяц целиком и за предыдущие месяцы, начиная с января 2011 года, Вы можете получить, выбрав интересующий диапазон дат из раскрывающегося списка и нажав кнопку "Ввод!".


*Определитесь, кто Вы:
робот инопланетянин человек

Внимание! Время в таблицах - всемирное. Для получения местного времени необходимо прибавить поправку, которая равна 6.5 ч.

Смотрите также архив погоды в соседних городах и на ближайших метеорологических станциях:

Погода в Маймансингхе (Бангладеш) (36 км)
Погода в Никли (Бангладеш) (65 км)
Погода в Тангайле (Бангладеш) (108 км)
Погода в Черапунджи (Мегхалая, Индия) (108 км)
Погода в Силхете (Бангладеш) (116 км)
Погода в Стримангале (Бангладеш) (121 км)
Погода в Агартале (Трипура, Индия) (124 км)
Погода в Дакке (Бангладеш) (130 км)
Погода в Богре (Бангладеш) (137 км)
Погода в Шиллонге (Мегхалая, Индия) (138 км)

Пояснения к столбцам:

Ветер - указаны скорость ветра в м/с - средняя за 10 мин, порывы в срок и между сроками (в фигурных скобках) и направление, откуда дует ветер: С - северный, СВ - северо-восточный, В - восточный, ЮВ - юго-восточный, Ю - южный, ЮЗ - юго-западный, З - западный, СЗ - северо-западный.
Видимость - горизонтальная дальность видимости в метрах или километрах. При видимости от 1 до 10 км при отсутствии осадков обычно наблюдается дымка, при ухудшении видимости до 1 км и менее - туман. В сухую погоду видимость может ухудшаться дымом, пылью или мглою.
Явления - указаны атмосферные явления, наблюдавшиеся в срок или в последний час перед сроком; фигурными скобками обозначены явления, наблюдавшиеся между сроками (за 1-3 часа до срока); квадратными скобками обозначены град или гололедные отложения с указанием их диаметра в мм.
Облачность - указаны через наклонную черту общая и нижняя облачность в баллах и высота нижней границы облаков в метрах; квадратными скобками обозначены формы облаков: Ci - перистые, Cs - перисто-слоистые, Cc - перисто-кучевые, Ac - высококучевые, As - высокослоистые, Sc - слоисто-кучевые, Ns - слоисто-дождевые, Cu - кучевые, Cb - кучево-дождевые. Подробнее классификацию облаков см. в Атласе облаков (PDF).
T - Температура воздуха - температура, измеренная на высоте 2 м над землей.
Td - Температура точки росы - температура, при понижении до которой содержащийся в воздухе водяной пар достигнет насыщения.
f - Относительная влажность воздуха - влажноcть воздуха, измеренная на высоте 2 м над землей.
Te - Эффективная температура - температура, которую ощущает одетый по сезону человек в тени. Характеристика душности погоды. При расчете учитывается влияние влажности воздуха и скорости ветра на теплоощущения человека.
Tes - Эффективная температура на солнце - температура, которую ощущает человек, с поправкой на солнечный нагрев. Характеристика знойности погоды. Зависит от высоты солнца над горизонтом, облачности и скорости ветра. Ночью, в пасмурную погоду, а также при ветре 12 м/с и более поправка равна нулю.
P - Атмосферное давление - приведенное к уровню моря атмосферное давление.
Po - Атмосферное давление - измеренное на уровне метеостанции атмосферное давление.
Tmin - Минимальная температура - минимум температуры воздуха на высоте 2 м над землей.
Tmax - Максимальная температура - максимум температуры воздуха на высоте 2 м над землей.
R - Количество осадков - Количество выпавших осадков за период времени, мм. При наведении курсора мыши на число - период времени, за который выпало указанное количество осадков.
R24 - Количество осадков - Количество выпавших осадков за 24 часа, мм.
S - Снежный покров - Высота снежного покрова, см. При наведении курсора мыши на число - состояние снежного покрова и степень покрытия местности в баллах.